Washington, MO

6:38 AM CDT on July 22, 2017 (GMT -0500)
Washington

Weather History for KFYG - January, 2014

Change the Weather History Date:

Sunday, January 5, 2014

  Actual Average (KSUS) Record (KSUS)
Temperature  
Mean Temperature 18 °F -  
Max Temperature 33 °F 39 °F 42 °F (2016)
Min Temperature 3 °F 21 °F 12 °F (2015)
Degree Days  
Heating Degree Days 47    
Moisture  
Dew Point 12 °F    
Average Humidity 83    
Maximum Humidity 100    
Minimum Humidity 47    
Precipitation  
Precipitation 38.51 in - - ()
Sea Level Pressure  
Sea Level Pressure 30.06 in    
Wind  
Wind Speed 12 mph (NNW)    
Max Wind Speed 25 mph    
Max Gust Speed 36 mph    
Visibility 4 miles    
Events Rain , Snow    
Averages and records for this station are not official NWS values.
T = Trace of Precipitation, MM = Missing Value Source: NWS Daily Summary

Daily Weather History Graph

Daily Weather History Graph

Search for Another Location

Airport or City:

Trip Planner

Search our weather history database for the weather conditions in past years. The results will help you decide how hot, cold, wet, or windy it might be!

Date:

Astronomy

Jan. 05, 2014 Rise Set
Actual Time 7:22 AM CST 4:57 PM CST
Civil Twilight 6:52 AM CST 5:26 PM CST
Nautical Twilight 6:19 AM CST 5:59 PM CST
Astronomical Twilight 5:47 AM CST 6:31 PM CST
Moon 10:07 AM CST (1/5) 10:21 PM CST (1/5)
Length of Visible Light 10h 34m
Length of Day
9h 35m
Waxing Crescent, 25% of the Moon is Illuminated
Jan 5
Waxing Crescent
Jan 7
First Quarter
Jan 15
Full
Jan 23
Last Quarter
Jan 30
New

Hourly Weather History & Observations

Time (CST) Temp. Windchill Dew Point Humidity Pressure Visibility Wind Dir Wind Speed Gust Speed Precip Events Conditions
12:15 AM 33.8 °F - 33.8 °F 100% 29.94 in 5.0 mi Calm Calm - N/A   Overcast
12:35 AM 33.8 °F 27.0 °F 33.8 °F 100% 29.94 in 6.0 mi North 8.1 mph - N/A   Overcast
12:55 AM 32.0 °F 22.5 °F 32.0 °F 100% 29.94 in 8.0 mi North 12.7 mph - N/A   Overcast
1:15 AM 30.2 °F 20.8 °F 28.4 °F 93% 29.95 in 7.0 mi North 11.5 mph - N/A   Overcast
1:35 AM 28.4 °F 18.5 °F 26.6 °F 93% 29.96 in 5.0 mi North 11.5 mph - N/A Rain Light Freezing Rain
1:55 AM 28.4 °F 19.1 °F 26.6 °F 93% 29.95 in 5.0 mi North 10.4 mph - N/A Rain Light Freezing Rain
2:15 AM 26.6 °F 16.8 °F 26.6 °F 100% 29.97 in 3.0 mi North 10.4 mph - N/A Snow Light Snow
2:35 AM 26.6 °F 16.8 °F 24.8 °F 93% 29.97 in 2.5 mi NNW 10.4 mph 16.1 mph 0.02 in Snow Light Snow
2:55 AM 24.8 °F 16.1 °F 24.8 °F 100% 29.96 in 2.5 mi North 8.1 mph - 0.06 in Snow Light Snow
3:15 AM 24.8 °F 15.3 °F 24.8 °F 100% 29.95 in 2.5 mi North 9.2 mph - 0.02 in Snow Light Snow
3:35 AM 24.8 °F 14.6 °F 24.8 °F 100% 29.94 in 3.0 mi North 10.4 mph - 0.04 in Snow Light Snow
3:55 AM 24.8 °F 16.9 °F 23.0 °F 93% 29.93 in 3.0 mi North 6.9 mph - 0.09 in Snow Light Snow
4:15 AM 24.8 °F 15.3 °F 23.0 °F 93% 29.91 in 5.0 mi NNW 9.2 mph - N/A Rain Light Freezing Rain
4:35 AM 24.8 °F 17.9 °F 23.0 °F 93% 29.91 in 5.0 mi North 5.8 mph - N/A Rain Light Freezing Rain
4:55 AM 23.0 °F 13.1 °F 21.2 °F 93% 29.91 in 8.0 mi North 9.2 mph - N/A   Overcast
5:15 AM 23.0 °F 10.6 °F 21.2 °F 93% 29.89 in 7.0 mi North 13.8 mph 18.4 mph N/A Rain Light Freezing Rain
5:35 AM 23.0 °F 13.9 °F 21.2 °F 93% 29.93 in 1.5 mi NNW 8.1 mph - 0.08 in Snow Light Snow
5:55 AM 23.0 °F 13.1 °F 23.0 °F 100% 29.94 in 1.0 mi NNW 9.2 mph - 0.21 in Snow Light Snow
6:15 AM 23.0 °F 14.7 °F 23.0 °F 100% 29.93 in 0.2 mi North 6.9 mph 17.3 mph 0.65 in Snow Heavy Snow
6:35 AM 21.2 °F 10.9 °F 21.2 °F 100% 29.93 in 0.2 mi NNW 9.2 mph - 4.02 in Snow Heavy Snow
6:55 AM 21.2 °F 10.9 °F 21.2 °F 100% 29.93 in 0.2 mi North 9.2 mph - 6.57 in Snow Heavy Snow
7:15 AM 21.2 °F 9.5 °F 19.4 °F 93% 29.92 in 0.8 mi NNW 11.5 mph 17.3 mph 1.81 in Snow Light Snow
7:35 AM 21.2 °F 10.9 °F 19.4 °F 93% 29.92 in 0.5 mi NNW 9.2 mph - 3.39 in Snow Snow
7:55 AM 19.4 °F 7.2 °F 19.4 °F 100% 29.92 in 0.5 mi NNW 11.5 mph - 5.45 in Snow Snow
8:35 AM 19.4 °F 6.6 °F 17.6 °F 93% 29.94 in 0.5 mi North 12.7 mph - 0.90 in Snow Snow
8:55 AM 19.4 °F 6.6 °F 17.6 °F 93% 29.94 in 0.2 mi NNW 12.7 mph - 1.76 in Snow Heavy Snow
9:15 AM 19.4 °F 7.2 °F 17.6 °F 93% 29.93 in 0.2 mi North 11.5 mph 18.4 mph 1.88 in Snow Heavy Snow
9:35 AM 19.4 °F 6.0 °F 17.6 °F 93% 29.93 in 0.2 mi NNW 13.8 mph 19.6 mph 3.70 in Snow Heavy Snow
10:35 AM 19.4 °F 4.5 °F 17.6 °F 93% 29.95 in 0.5 mi NNW 17.3 mph 23.0 mph 2.66 in Snow Snow
10:55 AM 17.6 °F 1.3 °F 17.6 °F 100% 29.94 in 0.2 mi NNW 19.6 mph 24.2 mph 3.91 in Snow Heavy Snow
11:15 AM 17.6 °F 1.7 °F 15.8 °F 93% 29.95 in 0.2 mi NNW 18.4 mph 24.2 mph 1.50 in Snow Heavy Snow
11:35 AM 17.6 °F 2.7 °F 15.8 °F 93% 29.95 in - NNW 16.1 mph 20.7 mph 3.44 in Snow Heavy Snow
11:55 AM 15.8 °F 0.9 °F 15.8 °F 100% 29.94 in 0.2 mi NNW 15.0 mph 28.8 mph 6.68 in Snow Heavy Snow
12:15 PM 15.8 °F -1.1 °F 14.0 °F 93% 29.94 in 0.2 mi NNW 19.6 mph 27.6 mph 2.14 in Snow Heavy Snow
12:35 PM 15.8 °F 2.1 °F 14.0 °F 93% 29.95 in 0.2 mi NW 12.7 mph 26.5 mph 5.14 in Snow Heavy Snow
1:15 PM 14.0 °F -3.9 °F 12.2 °F 93% 29.96 in 0.2 mi NW 20.7 mph - 0.73 in Snow Heavy Snow
1:35 PM 14.0 °F -3.9 °F 10.4 °F 86% 29.98 in 0.2 mi NNW 20.7 mph 25.3 mph 1.38 in Snow Heavy Snow
1:55 PM 14.0 °F -3.0 °F 10.4 °F 86% 29.99 in 0.2 mi NNW 18.4 mph 27.6 mph 2.27 in Snow Heavy Snow
2:15 PM 14.0 °F -2.5 °F 8.6 °F 79% 30.00 in 0.5 mi NNW 17.3 mph 28.8 mph 0.45 in Snow Snow
2:35 PM 14.0 °F -5.5 °F 8.6 °F 79% 30.00 in 0.5 mi NNW 25.3 mph 31.1 mph 1.08 in Snow Snow
2:55 PM 14.0 °F -3.0 °F 8.6 °F 79% 30.03 in 0.5 mi NNW 18.4 mph 26.5 mph 1.63 in Snow Snow
3:15 PM 14.0 °F -2.0 °F 8.6 °F 79% 30.05 in 0.5 mi NNW 16.1 mph 26.5 mph 0.30 in Snow Snow
3:35 PM 14.0 °F -1.4 °F 8.6 °F 79% 30.07 in 0.8 mi NW 15.0 mph 25.3 mph 0.54 in Snow Light Snow
3:55 PM 12.2 °F -4.3 °F 8.6 °F 85% 30.09 in 0.8 mi NW 16.1 mph 23.0 mph 0.70 in Snow Light Snow
4:15 PM 12.2 °F -5.8 °F 6.8 °F 79% 30.11 in - NNW 19.6 mph 33.4 mph 0.07 in Snow Heavy Snow
4:35 PM 12.2 °F -5.8 °F 6.8 °F 79% 30.13 in - NW 19.6 mph 31.1 mph 0.17 in Snow Heavy Snow
4:55 PM 10.4 °F -8.2 °F 6.8 °F 85% 30.15 in - NW 19.6 mph - 0.28 in Snow Heavy Snow
5:15 PM 10.4 °F -9.9 °F 5.0 °F 79% 30.17 in - NNW 24.2 mph 34.5 mph 0.03 in Snow Heavy Snow
5:35 PM 10.4 °F -9.5 °F 5.0 °F 79% 30.19 in 4.0 mi NW 23.0 mph 29.9 mph 0.05 in Snow Light Snow
5:55 PM 10.4 °F -9.1 °F -0.4 °F 62% 30.21 in 8.0 mi NW 21.9 mph 28.8 mph 0.06 in Rain Light Freezing Rain
6:15 PM 10.4 °F -9.5 °F -2.2 °F 57% 30.23 in 5.0 mi NW 23.0 mph 34.5 mph N/A Rain Light Freezing Rain
6:35 PM 8.6 °F -11.0 °F -4.0 °F 57% 30.24 in 6.0 mi NNW 20.7 mph 35.7 mph N/A Rain Light Freezing Rain
7:15 PM 8.6 °F -11.4 °F -4.0 °F 57% 30.27 in 10.0 mi NNW 21.9 mph 27.6 mph N/A Rain Light Freezing Rain
7:35 PM 6.8 °F -10.7 °F -4.0 °F 61% 30.30 in 10.0 mi NW 15.0 mph - N/A Rain Light Freezing Rain
7:55 PM 6.8 °F -13.4 °F -4.0 °F 61% 30.30 in 10.0 mi NW 20.7 mph 27.6 mph N/A Rain Light Freezing Rain
8:15 PM 6.8 °F -11.8 °F -5.8 °F 56% 30.31 in 9.0 mi NW 17.3 mph 28.8 mph N/A Rain Light Freezing Rain
8:35 PM 6.8 °F -11.8 °F -4.0 °F 61% 30.31 in 10.0 mi NW 17.3 mph 26.5 mph N/A Rain Light Freezing Rain
8:55 PM 6.8 °F -12.9 °F -4.0 °F 61% 30.32 in 10.0 mi NW 19.6 mph 23.0 mph N/A Rain Light Freezing Rain
9:15 PM 6.8 °F -13.8 °F -4.0 °F 61% 30.33 in 8.0 mi NNW 21.9 mph 27.6 mph N/A Rain Light Freezing Rain
9:35 PM 6.8 °F -11.8 °F -4.0 °F 61% 30.34 in 8.0 mi NW 17.3 mph 29.9 mph N/A Rain Light Freezing Rain
9:55 PM 6.8 °F -13.8 °F -4.0 °F 61% 30.34 in 10.0 mi NW 21.9 mph - N/A   Overcast
10:15 PM 6.8 °F -14.3 °F -5.8 °F 56% 30.35 in 10.0 mi NW 23.0 mph 28.8 mph N/A   Scattered Clouds
10:55 PM 5.0 °F -16.2 °F -5.8 °F 61% 30.37 in 10.0 mi NW 21.9 mph 27.6 mph N/A Rain Light Freezing Rain
11:15 PM 5.0 °F -13.0 °F -7.6 °F 56% 30.37 in 10.0 mi NNW 15.0 mph - N/A   Mostly Cloudy
11:35 PM 3.2 °F -14.6 °F -9.4 °F 56% 30.38 in 10.0 mi NNW 13.8 mph 25.3 mph N/A   Mostly Cloudy
11:55 PM 3.2 °F -17.1 °F -13.0 °F 47% 30.37 in 10.0 mi NW 18.4 mph 25.3 mph N/A   Partly Cloudy